Location: Arenberg
(50.3672°N, 7.6525°E)
Time: 05:42:16
(UTC+00:00)

Daily predictions for brighter satellites

Satellite Brightness Start Highest point End
(mag) Time Altitude Azimuth Time Altitude Azimuth Time Altitude Azimuth
USA 267 4.0 00:00:09 10° ENE 00:06:26 51° N 00:12:43 10° WNW
Cosmos 1025 Rocket 3.8 00:02:57 10° NNW 00:06:21 42° WNW 00:06:21 42° WNW
Okean 1 Rocket 3.5 00:09:30 54° ENE 00:09:30 54° ENE 00:13:31 10° NNE
SJ 16-02 2.1 00:09:53 44° E 00:09:53 44° E 00:13:39 10° NNE
Okean 2 Rocket 3.6 00:10:41 52° WNW 00:10:41 52° WNW 00:15:00 10° N
SL-16 R/B 2.0 00:07:26 10° NNW 00:13:09 77° WSW 00:13:48 68° S
Cosmos 2263 Rocket 4.0 00:14:58 17° ESE 00:16:03 18° E 00:19:42 10° ENE
Meteor 2-13 Rocket 4.4 00:10:11 10° NNW 00:16:16 69° W 00:17:19 58° SSW
SL-14 R/B 4.3 00:13:31 10° N 00:17:08 38° ENE 00:17:08 38° ENE
Cosmos 1428 Rocket 4.4 00:11:07 10° N 00:17:27 85° W 00:18:53 57° S
MOZ.5/SAFIR/RUBIN 5/SL-8 4.3 00:22:13 45° ESE 00:23:12 53° ENE 00:27:48 10° N
Cosmos 158 Rocket 3.9 00:23:59 10° NNW 00:29:24 78° WSW 00:29:59 69° SSW
Cosmos 990 Rocket 4.3 00:29:47 47° SE 00:30:18 49° ESE 00:35:17 10° NNE
Cosmos 2297 Rocket 2.5 00:28:54 46° WSW 00:30:18 59° NW 00:35:56 10° NNE
ADEOS II 4.4 00:27:55 10° NE 00:30:52 15° E 00:33:35 11° ESE
Cosmos 1092 Rocket 4.3 00:29:37 10° NNW 00:35:32 47° W 00:36:34 43° WSW
Cosmos 1455 Rocket 4.2 00:35:30 32° ESE 00:36:06 34° E 00:40:08 10° NNE
Cosmos 2112 Rocket 3.8 00:30:58 10° NNW 00:36:13 80° WSW 00:36:46 70° S
USA 229 DEB 3.9 00:36:45 44° SSE 00:38:10 51° ESE 00:44:46 10° NE
USA 229 3.9 00:36:53 43° SSE 00:38:17 50° ESE 00:44:51 10° NE
UNK 4.3 00:38:59 40° ESE 00:40:17 53° ENE 00:44:51 10° N
Cosmos 2237 Rocket 3.8 00:37:55 10° NW 00:41:12 19° W 00:41:12 19° W
Cosmos 2219 4.0 00:41:47 32° W 00:43:42 44° NW 00:49:05 10° NNE
Meteor 1-15 Rocket 4.2 00:43:07 55° SW 00:44:11 68° WNW 00:49:46 10° N
Cosmos 1898 Rocket 3.6 00:43:57 54° SE 00:44:42 60° ESE 00:49:50 10° NNE
Cosmos 1892 Rocket 3.5 00:43:00 10° N 00:47:29 75° E 00:47:51 70° ESE
Meteor 1-24 Rocket 3.5 00:42:35 10° NNW 00:48:01 88° W 00:49:06 59° S
NOSS 3-1 (A) 3.9 00:48:36 38° SE 00:49:37 42° ESE 00:55:31 10° NE
Meteor 1-29 3.7 00:46:20 10° N 00:49:04 52° N 00:49:04 52° N
CZ-4 R/B 4.4 00:45:37 10° N 00:50:26 48° WNW 00:51:18 43° W
Cosmos 1674 4.2 00:47:36 10° NNW 00:49:53 27° WNW 00:49:53 27° WNW
Cosmos 1680 Rocket 3.6 00:46:15 10° NNW 00:51:21 53° WSW 00:51:28 53° WSW
IRAS Rocket 4.3 00:49:57 39° SSE 00:52:05 77° ENE 00:57:44 10° NNW
Spot 1 3.8 00:52:54 85° NW 00:52:54 85° NW 00:56:55 10° NNW
Cosmos 1603 3.9 00:47:59 10° NNW 00:53:45 70° ENE 00:57:17 24° SE
Cosmos 1461 3.0 00:55:29 67° W 00:55:52 73° NW 01:00:30 10° NE
DELTA 2 DEB (DPAF) 4.0 01:05:03 71° SW 01:05:21 75° WSW 01:09:50 10° NNW
CZ-2D R/B 2.4 01:00:45 10° NNE 01:06:13 62° ESE 01:07:59 41° SSE
Cosmos 1340 Rocket 3.2 01:07:07 49° ESE 01:07:25 51° E 01:11:15 10° NNE
Cosmos 1758 3.9 01:08:43 44° ESE 01:09:13 47° E 01:13:05 10° NNE
Cosmos 1766 3.9 01:11:18 43° WNW 01:11:18 43° WNW 01:14:49 10° N
SL-16 R/B 2.5 01:09:25 38° S 01:12:01 79° WSW 01:18:19 10° NNW
Timation 1 Rocket 4.4 01:10:12 45° S 01:12:02 70° ESE 01:18:00 10° NE
Cosmos 1943 3.2 01:06:40 10° NNW 01:12:20 79° ENE 01:16:10 21° SE
Cosmos 1733 3.8 01:14:34 46° WNW 01:14:34 46° WNW 01:18:08 10° N
Cosmos 1626 3.1 01:12:32 10° NNW 01:15:17 36° WNW 01:15:17 36° WNW
Cosmos 1655 Rocket 4.0 01:10:02 10° NNW 01:16:16 69° W 01:18:27 41° SSW
IKONOS-2 4.4 01:18:13 58° SSE 01:19:01 87° ENE 01:23:18 10° NNW
Cosmos 2292 Rocket 4.4 01:12:47 10° NNW 01:20:02 74° W 01:22:07 42° S
Cosmos 2227 Rocket 3.4 01:18:32 23° W 01:21:11 34° NW 01:26:20 10° NNE
IRS-1D 4.4 01:18:20 10° NNE 01:23:12 42° E 01:25:39 26° SSE
Cosmos 1544 Rocket 3.7 01:22:37 50° SSE 01:23:39 70° E 01:28:07 10° NNE
Meteor 2-5 Rocket 4.3 01:19:11 10° NNW 01:24:16 37° W 01:25:04 35° WSW
Cosmos 1470 2.6 01:24:18 71° S 01:24:42 86° E 01:28:44 10° N
NPP 3.7 01:19:38 10° NNE 01:25:03 74° ESE 01:27:04 39° S
Cosmos 1953 3.5 01:23:54 29° SE 01:25:12 37° E 01:28:58 10° NNE
Helios 1B rocket 3.9 01:22:06 10° N 01:25:28 25° WNW 01:25:58 24° WNW
Meteor 1-22 Rocket 4.2 01:25:04 44° SW 01:26:31 61° WNW 01:31:53 10° N
Cosmos 2279 Rocket 4.4 01:29:43 35° WSW 01:31:53 48° WNW 01:37:54 10° N
AQUA 3.9 01:28:01 10° NNE 01:32:48 71° ESE 01:34:26 41° S
Cosmos 858 Rocket 4.5 01:32:00 45° SW 01:33:40 78° WNW 01:38:59 10° NNE
Resurs 1-4 Rocket 2.1 01:34:23 10° NNE 01:39:40 73° WNW 01:41:36 40° SW
Exosat Rocket 4.2 01:36:53 31° SSW 01:40:53 84° ESE 01:46:45 10° NNE
Cosmos 1602 Rocket 3.6 01:38:03 10° N 01:42:26 75° E 01:44:26 31° SSE
Cosmos 2098 Rocket 4.1 01:38:22 10° NNW 01:43:46 56° W 01:46:32 33° SSW
NOSS 2-3 (E) 3.6 01:44:49 46° SW 01:46:10 89° SE 01:51:28 10° NE
Cosmos 2227 4.2 01:44:00 36° SSW 01:46:28 87° ESE 01:52:17 10° NNE
IDEFIX/ARIANE 42P 4.5 01:43:52 10° NE 01:48:05 24° E 01:52:18 10° SE
SJ 16-02 2.8 01:46:52 22° W 01:48:13 25° NW 01:51:56 10° N
Meteor 2-14 Rocket 4.4 01:42:09 10° N 01:48:15 88° E 01:52:41 20° S
USA 267 3.8 01:42:34 10° E 01:48:57 59° NNE 01:55:22 10° WNW
NOSS 3-1 (C) 3.6 01:48:09 29° WSW 01:51:09 64° NW 01:57:48 10° NE
Cosmos 1048 Rocket 3.9 01:50:29 10° NNW 01:55:41 86° ENE 02:00:53 10° SSE
SL-16 R/B 4.1 01:53:30 10° WNW 01:55:38 14° W 01:55:38 14° W
Cosmos 1908 4.3 01:56:15 21° SSE 01:58:26 40° E 02:02:07 10° NNE
Cosmos 2263 Rocket 2.1 01:56:40 33° SSW 01:59:15 84° WNW 02:04:52 10° NNE
Cosmos 2298 Rocket 4.2 01:57:57 28° S 02:00:44 68° ESE 02:06:04 10° NNE
Meteor 1-16 Rocket 4.4 02:01:57 21° S 02:05:38 67° E 02:11:16 10° NNE
Cosmos 372 Rocket 4.0 02:04:37 32° SSW 02:07:09 82° WNW 02:12:27 10° NNE
Meteor 1-28 Rocket 3.4 02:06:34 17° SSE 02:09:22 72° ENE 02:13:11 10° N
Cosmos 1937 Rocket 4.2 02:07:18 26° WSW 02:09:47 43° WNW 02:14:52 10° NNE
COBE Rocket 4.1 02:08:32 33° SSW 02:10:09 46° W 02:14:39 10° NNW
SL-08 R/B 3.4 02:05:26 11° SSE 02:10:15 84° ENE 02:15:13 10° NNW
NOSS 2-3 (D) 3.9 02:08:30 31° WSW 02:10:34 69° NW 02:15:53 10° NE
ADEOS II 2.1 02:06:01 10° NNE 02:11:19 89° ESE 02:14:31 25° SSW
Cosmos 1626 Rocket 3.9 02:07:41 10° NNW 02:11:47 43° W 02:13:03 34° SW
Cosmos 1455 Rocket 4.2 02:12:38 25° WSW 02:13:57 30° WNW 02:17:55 10° N
CZ-4B R/B 3.3 02:09:31 10° N 02:14:16 68° WNW 02:16:40 29° SW
Cosmos 1900 4.4 02:09:42 10° NW 02:14:52 88° SW 02:20:02 10° SE
Cosmos 2285 Rocket 4.1 02:10:59 22° SSW 02:15:13 75° ESE 02:21:31 10° NNE
Cosmos 1726 2.3 02:14:19 39° SW 02:15:18 53° WNW 02:18:54 10° N
ATLAS CENTAUR R/B 1.6 02:13:46 32° SSW 02:15:25 58° SE 02:19:16 10° NE
Cosmos 2297 Rocket 4.3 02:11:56 10° WNW 02:15:36 17° NNW 02:19:18 10° N
Cosmos 1553 Rocket 4.2 02:15:29 13° S 02:20:57 68° E 02:27:05 10° NNE
Cosmos 1844 Rocket 3.8 02:17:42 12° S 02:22:25 38° ESE 02:27:32 10° NE
ERS-2 4.3 02:20:16 10° SE 02:23:24 28° ENE 02:26:34 10° N
Meteor 1-11 4.4 02:18:53 10° N 02:24:40 75° ENE 02:30:20 10° SSE
GEOS 3 Rocket 3.8 02:19:30 10° NE 02:24:54 70° NW 02:28:25 22° WSW
CBERS-1 4.1 02:22:59 10° N 02:28:03 61° WNW 02:31:10 23° SW
USA 229 DEB 4.2 02:24:11 17° WSW 02:29:10 52° NW 02:36:02 10° NE
USA 229 4.2 02:24:18 17° WSW 02:29:16 52° NW 02:36:08 10° NE
Cosmos 1745 Rocket 4.2 02:23:21 10° N 02:29:39 74° ENE 02:35:51 10° SSE
Meteor 2-10 4.5 02:27:12 24° SW 02:30:31 54° WNW 02:36:09 10° N
Cosmos 2084 3.5 02:28:47 27° SW 02:31:10 85° SE 02:35:39 10° NE
ARIANE 5 R/B 2.7 02:26:27 10° NNE 02:31:43 75° ESE 02:36:11 14° S
NOSS 8 (E) 4.4 02:32:47 30° SSW 02:34:04 57° SE 02:37:03 10° NE
Cosmos 1758 Rocket 3.5 02:30:22 10° NNW 02:34:40 64° W 02:38:14 15° S
ERS-1 4.5 02:31:51 10° NNE 02:36:51 83° ESE 02:41:00 15° SSW
SL-08 R/B 4.5 02:32:37 10° NNW 02:38:50 74° W 02:45:06 10° S
NOSS 3-1 (A) 3.9 02:36:02 17° WSW 02:40:21 53° NW 02:47:00 10° NE
Cosmos 494 Rocket 4.0 02:38:56 10° NNW 02:44:03 61° WSW 02:49:09 10° S
CZ-2D R/B 3.5 02:41:25 10° N 02:45:53 26° WNW 02:49:19 15° WSW
Cosmos 2150 Rocket 4.2 02:42:28 20° SW 02:46:00 61° WNW 02:51:16 10° NNE
Cosmos 2058 Rocket 4.1 02:42:49 10° SSE 02:47:04 46° E 02:51:19 10° NNE
H-2A R/B 2.2 02:44:08 10° SSE 02:48:11 69° ENE 02:52:18 10° N
Cosmos 1703 3.8 02:46:27 10° NNW 02:50:10 38° W 02:52:42 18° SSW
CZ-2C R/B 4.3 02:48:11 10° NE 02:52:06 27° E 02:56:02 10° SSE
S3M 4.1 02:46:24 10° S 02:52:48 84° E 02:59:13 10° N
Cosmos 1825 Rocket 3.7 02:48:59 10° NNW 02:53:12 52° W 02:57:23 10° S
Cosmos 1943 4.5 02:51:48 10° NW 02:55:44 20° W 02:57:52 16° SW
SL-16 R/B 4.1 02:54:31 13° WSW 02:56:37 16° W 03:00:14 10° NW
Landsat 5 3.6 02:53:06 10° SSE 02:57:08 79° ENE 03:01:21 10° NNW
USA 215 3.7 02:51:30 10° ENE 02:57:56 55° SE 03:03:50 12° SW
Cosmos 1125 Rocket 3.6 02:54:00 16° SSW 02:58:14 71° WNW 03:03:33 10° NNE
IRS-1C 4.4 02:54:07 10° N 02:59:20 55° WNW 03:03:51 14° SW
Cosmos 1953 3.8 02:59:36 16° WSW 03:01:43 23° WNW 03:05:00 10° NNW
IRS-1D 4.5 02:57:49 10° N 03:02:21 33° WNW 03:06:08 14° WSW
Cosmos 1892 4.4 02:59:48 10° N 03:03:25 37° ENE 03:06:58 10° SE
SL-24 R/B 4.3 02:59:17 10° S 03:04:32 75° WSW 03:09:04 10° NNW
Cosmos 1953 Rocket 3.7 03:00:16 10° NNW 03:04:42 60° W 03:09:05 10° S
CZ-4B R/B 3.7 03:03:20 10° SE 03:06:03 27° ENE 03:08:44 10° N
CZ-2D R/B 3.4 03:05:02 10° N 03:09:01 66° WNW 03:12:51 11° SSW
Cosmos 1709 Rocket 4.1 03:03:16 10° N 03:09:28 82° E 03:15:35 10° SSE
Resurs 1-4 Rocket 4.1 03:15:46 10° NNW 03:18:38 15° NW 03:21:29 10° W
USA 238 DEB 4.0 03:13:01 10° NW 03:20:12 81° NE 03:27:41 10° SE
USA 238 4.1 03:13:06 10° NW 03:20:18 80° NE 03:27:48 10° SE
Cosmos 1606 Rocket 4.1 03:19:25 10° SW 03:23:40 42° WNW 03:27:57 10° N
Atlas Centaur 2 4.3 03:21:29 10° SSW 03:24:40 14° S 03:28:06 10° SSE
NOSS 2-2 (E) 3.3 03:22:45 10° SW 03:26:18 75° SE 03:30:28 10° NE
CENTAUR R/B 3.7 03:18:36 10° NW 03:26:23 67° NE 03:35:05 10° ESE
NOSS 2-2 (D) 3.5 03:23:41 10° SSW 03:27:12 61° SE 03:31:11 10° NE
IDEFIX/ARIANE 42P 2.8 03:22:56 10° N 03:28:01 56° WNW 03:33:07 10° SW
Cosmos 2082 Rocket 4.0 03:26:34 10° NNW 03:31:48 37° NE 03:36:59 10° ESE
USA 267 3.3 03:25:21 10° SE 03:31:54 75° SW 03:38:28 10° WNW
MSX 3.9 03:28:10 10° NNE 03:33:56 74° WNW 03:39:41 10° SSW
PSLV R/B 3.9 03:30:22 10° NNE 03:34:46 73° ESE 03:39:06 10° S
Meteor 2-15 Rocket 4.5 03:29:31 10° SSW 03:35:34 76° WNW 03:41:41 10° N
COSMOS 2406 3.5 03:30:54 10° NNW 03:36:38 78° ENE 03:42:18 10° SSE
Cosmos 1825 3.9 03:34:30 10° N 03:38:03 38° ENE 03:41:35 10° SE
Cosmos 1726 Rocket 4.3 03:34:14 10° SW 03:38:24 38° WNW 03:42:36 10° N
Cosmos 2228 4.1 03:36:52 10° SW 03:40:43 29° WNW 03:44:37 10° N
Cosmos 2315 Rocket 4.1 03:36:07 10° S 03:42:27 84° W 03:48:54 10° N
ADEOS Rocket 4.0 03:35:02 10° SSE 03:42:46 75° ENE 03:50:26 10° NNW
Cosmos 2263 Rocket 3.8 03:39:49 10° W 03:44:02 22° NW 03:48:17 10° NNE
Cosmos 1844 3.8 03:38:32 10° SW 03:44:19 73° WNW 03:50:06 10° NNE
